Location: Monrovia
(34.7865°N, 86.7139°W)
Time: 00:27:45
(UTC+00:00)

COSMOS 2455 - Pass Details

Date: 14 July 2020
Orbit: 898 x 911 km, 67.1° (Epoch: 12 August)

Event Time Altitude Azimuth Distance (km) Brightness Sun altitude
Rises 05:09:35 0° 327° (NNW) 3,546 6.9 -32.7°
Reaches altitude 10° 05:12:10 10° 322° (NW) 2,601 5.9 -32.8°
Enters shadow 05:16:26 40° 290° (WNW) 1,316 3.8 -33.0°
